QIANFAN-38 (62239 NORAD) Tracking and Keplerian Element Data

This shows tracking and keplerian element data for the satellite.

Feedback or suggestion? Click here.




ElementValue
Catalog62239
NameQIANFAN-38
Epoch Orbit5694
Epoch Day34.80288405
Epoch Year2025
RAAN73.1869
Inclination88.9886
Eccentricity0.0015944
Argument of Perigee27.7891
Mean Anonmoly332.4147
Mean Motion14.19604297
Decay Rate4.48E-06
L11 62239U 24232C 25034.80288405 .00000448 00000+0 20546-3 0 9999
L22 62239 88.9886 73.1869 0015944 27.7891 332.4147 14.19604297 56943



Live tracking and technical data element details for QIANFAN-38 (NORAD 62239). QIANFAN-38 can be tracked NOW for your location showing map with azimuth and elevation plus other details from your city location.







IsCatalogInMostPopularTable: catalog: 62239, numindb: 11
Update: records affected: 1



GetName: 62239 QIANFAN-38

Hit Count: updated at: Mon, 19 May 2025 03:29:52 GMT